Location: ??????????
(44.2167°N, 135.5333°E)
Time: 14:52:19
(UTC+00:00)

Cosmos 2233 Rocket - Pass Details

Date: 15 June 2025
Orbit: 953 x 989 km, 82.9° (Epoch: 15 July)

Event Time Altitude Azimuth Distance (km) Brightness Sun altitude
Rises 13:18:34 0° 350° (N) 3,706 8.5 -18.7°
Reaches altitude 10° 13:21:06 10° 348° (NNW) 2,756 7.6 -18.9°
Maximum altitude 13:27:24 72° 265° (W) 1,037 4.1 -19.3°
Enters shadow 13:30:49 29° 188° (S) 1,738 4.8 -19.5°
